Location: Unspecified
(41.1637°N, 24.2901°E)
Time: 13:35:34
(UTC+01:00)

ARIANE 6 FM1 Upper Stage - Pass Details

Date: 22 January 2026
Orbit: 522 x 609 km, 62.0° (Epoch: 11 February)

Event Time Altitude Azimuth Distance (km) Brightness Sun altitude
Rises 18:32:16 0° 229° (SW) 2,713 7.0 -23.4°
Reaches altitude 10° 18:34:33 10° 234° (SW) 1,809 6.0 -23.8°
Maximum altitude 18:38:30 49° 310° (NW) 696 3.3 -24.6°
Enters shadow 18:38:45 48° 325° (NW) 704 3.2 -24.6°
